(167044) = 2003 QG53

Discovered at Socorro on 2003-08-23 by LINEAR.

Orbit

Orbit type: Phocaea

Note: WebGL enabled browser required.

epoch2024-03-31.0
epoch JD2460400.5
perihelion date2021-09-29.53971
perihelion JD2459487.03971
argument of perihelion (°)288.74229
ascending node (°)350.06347
inclination (°)12.60507
eccentricity0.2182400
perihelion distance (AU)1.8683738
Tisserand w.r.t. Jupiter3.5
ΔV w.r.t. Earth (km/sec)9.3
semimajor axis (AU)2.3899583
mean anomaly (°)243.67335
mean daily motion (°/day)0.26675860
aphelion distance (AU)2.912
period (years)3.69
P-vector [x]0.15702372
P-vector [y]-0.80383708
P-vector [z]-0.57375039
Q-vector [x]0.98687664
Q-vector [y]0.10556206
Q-vector [z]0.12219312
absolute magnitude16.32
phase slope0.15
uncertainty0
referenceMPEC 2024-E179
observations used526
oppositions15
arc length (days)8073
first opposition used2002
last opposition used2024
residual rms (arc-secs)0.79
perturbers coarse indicatorM-v
perturbers precise indicator003Ek
first observation date used2002-02-04.0
last observation date used2024-03-13.0
computer nameMPCLINUX
JD of orbit computation2456966.822623
perihelion JD uncertainty (days)7.8363E-05
argument of perihelion uncertainty (°)3.4003E-05
ascending node uncertainty (°)2.6541E-05
inclination uncertainty (°)1.0129E-05
eccentricity uncertainty 5.9116E-08
perihelion distance uncertainty (AU)1.4161E-07
Minimum Orbit Intersection Distances (in AU)
for orbit epoch: 2460400.5, reference: E2024-EA9
Mercury1.41227
Venus1.15968
Earth0.89667
Mars0.52504
Jupiter2.38093
Saturn6.23844
Uranus15.7774
Neptune27.1647

Observations

552 total observations over interval: 2002 02 04.37048 – 2024 03 13.191566
These data are available for download (format description).

Date (UT) J2000 RA J2000 Dec Magn Location Ref
2002 02 04.37048 10 31 34.75 +17 53 26.0 19.5 R 699 – Lowell Observatory-LONEOS MPS 86951
2002 02 04.39861 10 31 33.08 +17 53 30.8   699 – Lowell Observatory-LONEOS MPS 86951
2002 02 04.42676 10 31 31.32 +17 53 36.3   699 – Lowell Observatory-LONEOS MPS 86951
2002 02 04.45499 10 31 29.59 +17 53 38.3   699 – Lowell Observatory-LONEOS MPS 86951
2002 02 12.30087 10 23 20.62 +18 15 25.2 19.4   704 – Lincoln Laboratory ETS, New Mexico MPS 86951
2002 02 12.30112 10 23 20.63 +18 15 26.4 19.6   704 – Lincoln Laboratory ETS, New Mexico MPS 86951
2002 02 12.30188 10 23 20.51 +18 15 27.3 19.8   704 – Lincoln Laboratory ETS, New Mexico MPS 86951
2002 02 12.31500 10 23 19.66 +18 15 27.4 20.0   704 – Lincoln Laboratory ETS, New Mexico MPS 86951
2002 02 12.31525 10 23 19.63 +18 15 27.8 20.0   704 – Lincoln Laboratory ETS, New Mexico MPS 86951
2002 02 12.31601 10 23 19.55 +18 15 29.5 20.3   704 – Lincoln Laboratory ETS, New Mexico MPS 86951
2002 02 12.32247 10 23 19.26 +18 15 29.4 19.3   704 – Lincoln Laboratory ETS, New Mexico MPS 86951
2002 02 12.32914 10 23 18.74 +18 15 29.3 20.2   704 – Lincoln Laboratory ETS, New Mexico MPS 86951
2002 02 12.32939 10 23 18.71 +18 15 30.2 19.8   704 – Lincoln Laboratory ETS, New Mexico MPS 86951
2002 02 12.33016 10 23 18.59 +18 15 31.5 20.0   704 – Lincoln Laboratory ETS, New Mexico MPS 86951
2002 02 12.34330 10 23 17.72 +18 15 32.7 19.8   704 – Lincoln Laboratory ETS, New Mexico MPS 86951
2002 02 12.34354 10 23 17.81 +18 15 31.5 19.8   704 – Lincoln Laboratory ETS, New Mexico MPS 86951
2002 02 12.34431 10 23 17.62 +18 15 32.7 20.2   704 – Lincoln Laboratory ETS, New Mexico MPS 86951
2002 02 12.35230 10 23 17.22 +18 15 33.9 20.0   704 – Lincoln Laboratory ETS, New Mexico MPS 86951
2002 02 12.35747 10 23 16.75 +18 15 34.4 19.7   704 – Lincoln Laboratory ETS, New Mexico MPS 86951
2002 02 12.35772 10 23 16.78 +18 15 34.6 19.7   704 – Lincoln Laboratory ETS, New Mexico MPS 86951
2002 02 12.35848 10 23 16.71 +18 15 36.5 20.2   704 – Lincoln Laboratory ETS, New Mexico MPS 86951
2002 02 12.36672 10 23 16.23 +18 15 36.2 20.2   704 – Lincoln Laboratory ETS, New Mexico MPS 86951
2002 02 12.38148 10 23 15.16 +18 15 39.3 20.3   704 – Lincoln Laboratory ETS, New Mexico MPS 86951
2002 03 11.24232 09 53 12.75 +18 49 07.7 20.6   644 – Palomar Mountain/NEAT MPS 86951
2002 03 11.26368 09 53 11.45 +18 49 07.1 20.7   644 – Palomar Mountain/NEAT MPS 86951
2002 03 11.28484 09 53 10.18 +18 49 06.9 21.1   644 – Palomar Mountain/NEAT MPS 86951
2003 07 25.36721 23 25 33.66 -14 01 49.4 18.3   704 – Lincoln Laboratory ETS, New Mexico MPS 84112
2003 07 25.37725 23 25 33.52 -14 01 46.4 18.4   704 – Lincoln Laboratory ETS, New Mexico MPS 84113
2003 07 25.38728 23 25 33.24 -14 01 44.9 18.7   704 – Lincoln Laboratory ETS, New Mexico MPS 84113
2003 07 25.39737 23 25 33.04 -14 01 44.0 18.5   704 – Lincoln Laboratory ETS, New Mexico MPS 84113
2003 07 25.40829 23 25 32.83 -14 01 41.7 18.3   704 – Lincoln Laboratory ETS, New Mexico MPS 84113
2003 08 23.28982 23 02 43.90 -12 55 07.5 18.4   704 – Lincoln Laboratory ETS, New Mexico MPS 83505
2003 08 23.31531 23 02 42.02 -12 55 04.1 18.5   704 – Lincoln Laboratory ETS, New Mexico MPS 83505
2003 08 23.32771 23 02 41.12 -12 55 03.1 18.5   704 – Lincoln Laboratory ETS, New Mexico MPS 83505
2003 08 23.34013 23 02 40.26 -12 55 01.9 18.7   704 – Lincoln Laboratory ETS, New Mexico MPS 83505
2003 08 26.30518 22 59 09.58 -12 48 40.7 17.8   704 – Lincoln Laboratory ETS, New Mexico MPS 83505
2003 08 26.31815 22 59 08.62 -12 48 38.3 18.1   704 – Lincoln Laboratory ETS, New Mexico MPS 83505
2003 08 26.33056 22 59 07.70 -12 48 37.1 18.5   704 – Lincoln Laboratory ETS, New Mexico MPS 83505
2003 08 26.34340 22 59 06.73 -12 48 35.0 18.3   704 – Lincoln Laboratory ETS, New Mexico MPS 83505
2003 08 31.26897 22 53 08.33 -12 37 01.8 17.7   704 – Lincoln Laboratory ETS, New Mexico MPS 84113
2003 08 31.28081 22 53 07.40 -12 36 59.9 18.2   704 – Lincoln Laboratory ETS, New Mexico MPS 84113
2003 08 31.29257 22 53 06.50 -12 36 58.1 18.0   704 – Lincoln Laboratory ETS, New Mexico MPS 84113
2003 08 31.30441 22 53 05.63 -12 36 56.2 18.0   704 – Lincoln Laboratory ETS, New Mexico MPS 84113
2003 08 31.31629 22 53 04.71 -12 36 54.3 18.2   704 – Lincoln Laboratory ETS, New Mexico MPS 84113
2003 09 04.25903 22 48 17.92 -12 26 27.2 18.6 V 691 – Steward Observatory, Kitt Peak-Spacewatch MPS 84113
2003 09 04.28645 22 48 15.86 -12 26 22.6 18.7 V 691 – Steward Observatory, Kitt Peak-Spacewatch MPS 84113
2003 09 04.31510 22 48 13.71 -12 26 17.9 18.7 V 691 – Steward Observatory, Kitt Peak-Spacewatch MPS 84113
2003 09 17.19401 22 33 56.81 -11 42 49.2 18.1 R 699 – Lowell Observatory-LONEOS MPS 85274
2003 09 17.21230 22 33 55.74 -11 42 45.1   699 – Lowell Observatory-LONEOS MPS 85274
2003 09 17.23065 22 33 54.59 -11 42 40.7   699 – Lowell Observatory-LONEOS MPS 85274
2003 09 17.23744 22 33 54.26 -11 42 38.7 18.4   704 – Lincoln Laboratory ETS, New Mexico MPS 84574
2003 09 17.24892 22 33 53.51 -11 42 36.2   699 – Lowell Observatory-LONEOS MPS 85274
2003 09 17.24990 22 33 53.44 -11 42 36.2 18.3   704 – Lincoln Laboratory ETS, New Mexico MPS 84574
2003 09 17.26292 22 33 52.61 -11 42 32.7 18.1   704 – Lincoln Laboratory ETS, New Mexico MPS 84574
2003 09 17.27510 22 33 51.91 -11 42 29.3 18.8   704 – Lincoln Laboratory ETS, New Mexico MPS 84574
2003 09 17.28722 22 33 51.17 -11 42 26.3 18.4   704 – Lincoln Laboratory ETS, New Mexico MPS 84574
2003 09 17.34541 22 33 47.91 -11 42 11.7 19.2   608 – Haleakala-AMOS MPS 84574
2003 09 17.35609 22 33 47.22 -11 42 09.4 19.5   608 – Haleakala-AMOS MPS 84574
2003 09 17.36672 22 33 46.57 -11 42 07.2 19.8   608 – Haleakala-AMOS MPS 84574
2003 09 26.18070 22 26 18.03 -11 03 31.5 18.3   704 – Lincoln Laboratory ETS, New Mexico MPS 85274
2003 09 26.19328 22 26 17.37 -11 03 26.7 18.8   704 – Lincoln Laboratory ETS, New Mexico MPS 85274
2003 09 26.21848 22 26 16.25 -11 03 20.5 18.7   704 – Lincoln Laboratory ETS, New Mexico MPS 85274
2003 09 29.16616 22 24 19.18 -10 48 51.4 18.7   704 – Lincoln Laboratory ETS, New Mexico MPS 86951
2003 09 29.17894 22 24 18.73 -10 48 47.4 19.3   704 – Lincoln Laboratory ETS, New Mexico MPS 86951
2003 09 29.19171 22 24 18.18 -10 48 43.4 19.4   704 – Lincoln Laboratory ETS, New Mexico MPS 86951
2003 09 29.20495 22 24 17.70 -10 48 38.5 19.7   704 – Lincoln Laboratory ETS, New Mexico MPS 86951
2003 10 01.10727 22 23 12.06 -10 38 52.9 18.5 R 699 – Lowell Observatory-LONEOS MPS 86951
2003 10 01.12386 22 23 11.44 -10 38 49.1   699 – Lowell Observatory-LONEOS MPS 86951
2003 10 01.14072 22 23 10.81 -10 38 43.0   699 – Lowell Observatory-LONEOS MPS 86951
2003 10 01.15724 22 23 10.24 -10 38 37.5   699 – Lowell Observatory-LONEOS MPS 86951
2003 10 24.14236 22 19 41.19 -08 18 41.3 19.8   704 – Lincoln Laboratory ETS, New Mexico MPS 88060
2003 10 24.15433 22 19 41.34 -08 18 36.9 19.9   704 – Lincoln Laboratory ETS, New Mexico MPS 88060
2003 10 24.16606 22 19 41.53 -08 18 32.3 20.4   704 – Lincoln Laboratory ETS, New Mexico MPS 88060
2003 10 24.17807 22 19 41.68 -08 18 26.3 20.5   704 – Lincoln Laboratory ETS, New Mexico MPS 88060
2003 10 24.19036 22 19 41.71 -08 18 21.3 19.9   704 – Lincoln Laboratory ETS, New Mexico MPS 88060
2006 01 26.52538 12 36 12.70 -03 24 53.8 20.4 V G96 – Mt. Lemmon Survey MPS 160405
2006 01 26.53194 12 36 12.78 -03 24 55.7 20.4 V G96 – Mt. Lemmon Survey MPS 160405
2006 01 26.53855 12 36 12.85 -03 24 58.2 20.6 V G96 – Mt. Lemmon Survey MPS 160405
2006 01 26.54510 12 36 12.88 -03 25 00.1 20.4 V G96 – Mt. Lemmon Survey MPS 160405
2006 02 25.39147 12 29 17.40 -05 25 50.6 19.7 V 691 – Steward Observatory, Kitt Peak-Spacewatch MPS 165070
2006 02 25.40887 12 29 16.65 -05 25 53.0 19.7 V 691 – Steward Observatory, Kitt Peak-Spacewatch MPS 165070
2006 02 25.42627 12 29 15.91 -05 25 55.3 19.8 V 691 – Steward Observatory, Kitt Peak-Spacewatch MPS 165070
2006 03 04.39396 12 23 49.08 -05 38 19.4   691 – Steward Observatory, Kitt Peak-Spacewatch MPS 166049
2006 03 04.41129 12 23 48.13 -05 38 20.7   691 – Steward Observatory, Kitt Peak-Spacewatch MPS 166049
2006 03 04.42862 12 23 47.19 -05 38 22.3   691 – Steward Observatory, Kitt Peak-Spacewatch MPS 166049
